Home   Weather   Piešťany   Past weeks

Flag for Slovakia Past Weather in Piešťany, Slovakia — Yesterday and Last 2 Weeks

Now
50 °F

Clear.


Feels Like: 48 °F
Forecast: 46 / 52 °F
Wind: 6 mph from West

Location: Piestany

Current Time: Apr 26, 2017 at 9:50:28 pm

Latest Report: Apr 26, 2017 at 9:30 pm


Visibility: 10 mi

Pressure: 29.80 "Hg

Humidity: 76%

Dew Point: 43 °F

Location of PiešťanyLocation

Past Weather in Piešťany — Graph

°F

Piešťany Temperature Yesterday

Maximum temperature yesterday: 70 °F (at 3:30 pm)
Minimum temperature yesterday: 48 °F (at 4:00 am)
Average temperature yesterday: 58 °F

High & Low Weather Summary for the Past Weeks

 TemperatureHumidityPressure
High70 °F (Apr 25, 3:30 pm)100% (Apr 15, 3:30 am)30.42 "Hg (Apr 15, 3:30 am)
Low27 °F (Apr 17, 5:00 am)33% (Apr 16, 4:00 pm)29.68 "Hg (Apr 25, 5:00 pm)
Average46 °F66%30.00 "Hg
* Reported Apr 11 8:00 pm — Apr 26 8:00 pm, Piešťany, Weather by CustomWeather, © 2017

Note: Actual official high and low records may vary slightly from our data, if they occured in-between our weather recording intervals... More about our weather records

Advertising

Piešťany Weather History for the Previous 24 Hours

Scroll right to see more
 ConditionsComfort  
Time TempWeatherWind HumidityBarometerVisibility
8:00 pm
Wed, Apr 26
61 °FClear.8 mph59%29.74 "Hg10 mi
7:30 pm63 °FSunny.10 mph56%29.74 "Hg10 mi
7:00 pm63 °FSunny.14 mph52%29.74 "Hg10 mi
6:30 pm64 °FSunny.10 mph49%29.74 "Hg10 mi
6:00 pm64 °FPassing clouds.14 mph49%29.74 "HgN/A
5:30 pm64 °FSunny.18 mph49%29.74 "Hg10 mi
5:00 pm63 °FSunny.16 mph52%29.74 "Hg10 mi
4:30 pm63 °FSunny.16 mph52%29.74 "Hg10 mi
4:00 pm63 °FPassing clouds.12 mph52%29.74 "HgN/A
3:30 pm63 °FSunny.12 mph52%29.74 "Hg10 mi
3:00 pm61 °FSunny.9 mph55%29.74 "Hg10 mi
2:30 pm61 °FPassing clouds.9 mph55%29.74 "HgN/A
2:00 pm61 °FPartly sunny.12 mph55%29.74 "HgN/A
1:30 pm59 °FOvercast.12 mph59%29.74 "HgN/A
1:00 pm59 °FPartly sunny.12 mph59%29.74 "HgN/A
12:30 pm61 °FPassing clouds.9 mph55%29.74 "HgN/A
12:00 pm61 °FPartly sunny.9 mph59%29.74 "HgN/A
11:30 am59 °FPartly sunny.8 mph63%29.74 "HgN/A
11:00 am59 °FPartly sunny.8 mph59%29.74 "HgN/A
10:30 am57 °FSunny.9 mph63%29.74 "Hg10 mi
10:00 am57 °FSunny.9 mph63%29.74 "Hg10 mi
9:30 am55 °FSunny.12 mph67%29.74 "Hg10 mi
9:00 am55 °FPassing clouds.12 mph67%29.74 "HgN/A
8:30 am55 °FPartly sunny.14 mph67%29.74 "HgN/A
8:00 am54 °FPartly sunny.9 mph67%29.74 "HgN/A
7:30 am52 °FBroken clouds.10 mph77%29.74 "HgN/A
7:00 am52 °FPassing clouds.5 mph72%29.74 "HgN/A
6:30 am50 °FSunny.6 mph76%29.74 "Hg10 mi
6:00 am48 °FSunny.6 mph82%29.74 "Hg10 mi
5:30 am50 °FMostly cloudy.5 mph76%29.74 "HgN/A
5:00 am50 °FOvercast.7 mph76%29.71 "HgN/A
4:30 am50 °FPartly cloudy.7 mph76%29.71 "HgN/A
4:00 am50 °FOvercast.5 mph76%29.71 "HgN/A
3:30 am52 °FOvercast.7 mph77%29.71 "HgN/A
3:00 am54 °FOvercast.6 mph72%29.68 "HgN/A
2:30 am54 °FOvercast.7 mph72%29.71 "HgN/A
2:00 am54 °FOvercast.8 mph72%29.68 "HgN/A
1:30 am55 °FPartly cloudy.8 mph67%29.68 "HgN/A
1:00 am57 °FCool.10 mph63%29.71 "HgN/A
12:30 am59 °FRefreshingly cool.7 mph59%29.71 "HgN/A
12:00 am59 °FRefreshingly cool.8 mph55%29.71 "HgN/A
11:30 pm
Tue, Apr 25
61 °FRefreshingly cool.12 mph52%29.71 "HgN/A
11:00 pm61 °FRefreshingly cool.9 mph52%29.71 "HgN/A
10:30 pm61 °FRefreshingly cool.12 mph52%29.71 "HgN/A
10:00 pm63 °FClear.12 mph49%29.71 "Hg10 mi
9:30 pm63 °FClear.13 mph49%29.71 "Hg10 mi
9:00 pm64 °FClear.9 mph46%29.68 "Hg10 mi
Weather by CustomWeather, © 2017

See weather overviewHow to use our weather pages